STARLINK-35347 (65907 NORAD) Tracking and Keplerian Element Data

This shows tracking and keplerian element data for the satellite.

Feedback or suggestion? Click here.




ElementValue
Catalog65907
NameSTARLINK-35347
Epoch Orbit1266
Epoch Day354.05124935
Epoch Year2025
RAAN21.0847
Inclination53.1599
Eccentricity0.0003628
Argument of Perigee82.5623
Mean Anonmoly277.579
Mean Motion15.30226608
Decay Rate0.00021782
L11 65907U 25224AB 25354.05124935 .00021782 00000+0 74471-3 0 9995
L22 65907 53.1599 21.0847 0003628 82.5623 277.5790 15.30226608 12663



Live tracking and technical data element details for STARLINK-35347 (NORAD 65907). STARLINK-35347 can be tracked NOW for your location showing map with azimuth and elevation plus other details from your city location.







IsCatalogInMostPopularTable: catalog: 65907, numindb: 13
Update: records affected: 1



GetName: 65907 STARLINK-35347

Hit Count: updated at: Mon, 18 May 2026 10:01:15 GMT